THOR ABLESTAR DEB, 409

Orbit data source: Space-Track

THOR ABLESTAR DEB, 409 is space debris in LEO originally from a launch on Thu, 29 Jun 1961 UTC launched from the Air Force Eastern Test Range (AFETR). Debris objects in space refer to the collection of defunct objects orbiting the Earth. Examples of debris include non-operational satellites, rocket bodies, and fragments generated from explosions, collisions, or faulty payload assembly.

Loading next visibility...
Identifier
409, 1961-015EJ
Orbit
LEO
Country
Flag of USUS
Related business
Manufacturer
Unknown
Mission
Spacecraft
Bus & Motor
Unknown
Mass
Unknown
Launch date (UTC)
1961-06-29 (64 years ago)
Launch vehicle
Unknown
Launch site
Air Force Eastern Test Range (AFETR)
Object type
Payload
Rocket body
Debris
Shape & HBR
Unknown
Radar Cross Section
Small (<0.1 m²)

Expand to show TLE details & history
Last TLE update: 10 hours ago

TLE from 10 hours ago
0 THOR ABLESTAR DEB
1 00409U 61015EJ  25259.24600445  .00000765  00000-0  33432-3 0  9990
2 00409  66.7151 344.1889 0061120   7.2874 352.9097 14.28140552302176
Epoch: 2025-09-16T05:54Z
TLE epoch observation values (Epoch: 2025-09-16T05:54:14.784Z)
Latitude
-0°
Longitude
-99.81176°
Altitude
756.534 km
Speed
7.499 km/s
True Right ascension
22h 56m 45s
True Declination
0° 00' 00"
Sunlit
Object was in full shadow at epoch
Visualization orbit readout
Latitude
Unknown
Longitude
Unknown
Altitude
Unknown
Speed
Unknown
Apparent Right ascension
Unknown
Apparent Declination
Unknown
Sunlit
N/A
Visualization observer readout
Local Sidereal Time
08:45:14
Azimuth
Unknown
Elevation
Unknown
Doppler factor
Unknown
Orbital elements
Apogee altitude
840.178 km
Perigee altitude
752.477 km
Semi-major axis
7,174.464 km
Eccentricity
0.00611
Inclination
66.7151°
RAAN
344.1889°
Arg. of periapsis
7.2874°
True anomaly
352.82259°
Mean anomaly
352.9097°
Eccentric anomaly
352.86621°
Mean motion
3.57157 °/min
Orbital period
100.8 mins
BSTAR
0.00033432
Loading maneuver chart data...
Computing Atmospheric mass density...

Documentation

Showing up to 5 results
|